Location: Mahannah Oil Field
(37.4664°N, 96.6003°W)
Time: 02:44:56
(UTC+00:00)

Tiros 1 despin weight - Pass Details

Date: 29 January 2021
Orbit: 593 x 642 km, 48.2° (Epoch: 02 March)

Event Time Altitude Azimuth Distance (km) Brightness Sun altitude
Rises 19:38:23 0° 264° (W) 2,910 ? 33.1°
Reaches altitude 10° 19:40:54 10° 274° (W) 1,996 ? 33.0°
Maximum altitude 19:45:04 33° 339° (NNW) 1,043 ? 32.7°
Drops below altitude 10° 19:49:11 10° 44° (NE) 1,972 ? 32.5°
Sets 19:51:40 0° 54° (NE) 2,869 ? 32.3°
